Wetterdaten: Woche 22.12.08 - 28.12.08 (KW52)
Datum Zeit Temperatur Luftfeuchte Luftdruck Niederschlag Windrichtung Wind
22.12.2008 00:00 5,3 C 95 % 1034,3 hPa 0,0 l/m W-SW 9,9 km/h (2 Bft)
22.12.2008 01:00 5,1 C 95 % 1034,5 hPa 0,0 l/m W-SW 8,7 km/h (2 Bft)
22.12.2008 02:00 5,0 C 94 % 1034,5 hPa 0,0 l/m W-SW 8,6 km/h (2 Bft)
22.12.2008 03:00 4,9 C 93 % 1034,6 hPa 0,0 l/m W-SW 12,4 km/h (3 Bft)
22.12.2008 04:00 5,0 C 93 % 1034,1 hPa 0,0 l/m W-SW 15,7 km/h (3 Bft)
22.12.2008 05:00 4,9 C 93 % 1034,4 hPa 0,0 l/m W-SW 14,2 km/h (3 Bft)
22.12.2008 06:00 5,1 C 92 % 1034,4 hPa 0,0 l/m W-SW 20,2 km/h (4 Bft)
22.12.2008 07:00 4,9 C 91 % 1034,3 hPa 0,0 l/m W-SW 17,7 km/h (3 Bft)
22.12.2008 08:00 4,9 C 89 % 1034,3 hPa 0,0 l/m W-SW 18,6 km/h (3 Bft)
22.12.2008 09:00 4,7 C 92 % 1034,1 hPa 0,0 l/m SW 15,7 km/h (3 Bft)
22.12.2008 10:00 4,7 C 93 % 1034,1 hPa 0,0 l/m SW 17,0 km/h (3 Bft)
22.12.2008 11:00 5,0 C 91 % 1033,5 hPa 0,0 l/m W-SW 17,3 km/h (3 Bft)
22.12.2008 12:00 5,5 C 87 % 1033,2 hPa 0,0 l/m W-SW 16,9 km/h (3 Bft)
22.12.2008 13:00 5,7 C 86 % 1032,9 hPa 0,0 l/m SW 13,3 km/h (3 Bft)
22.12.2008 14:00 5,9 C 86 % 1033,0 hPa 0,0 l/m W-SW 16,6 km/h (3 Bft)
22.12.2008 15:00 6,1 C 86 % 1032,6 hPa 0,0 l/m W-SW 17,7 km/h (3 Bft)
22.12.2008 16:00 5,9 C 87 % 1032,8 hPa 0,0 l/m W 13,8 km/h (3 Bft)
22.12.2008 17:00 5,7 C 89 % 1033,4 hPa 0,0 l/m W 12,0 km/h (2 Bft)
22.12.2008 18:00 5,4 C 90 % 1033,4 hPa 0,0 l/m W-SW 14,4 km/h (3 Bft)
22.12.2008 19:00 5,2 C 92 % 1033,7 hPa 0,0 l/m S 10,2 km/h (2 Bft)
22.12.2008 20:00 5,0 C 94 % 1033,9 hPa 0,0 l/m S-SW 10,2 km/h (2 Bft)
22.12.2008 21:00 4,7 C 96 % 1034,0 hPa 0,0 l/m S-SW 8,7 km/h (2 Bft)
22.12.2008 22:00 4,6 C 97 % 1034,1 hPa 0,6 l/m SW 6,0 km/h (2 Bft)
22.12.2008 23:00 4,4 C 97 % 1034,0 hPa 0,2 l/m S-SW 4,9 km/h (1 Bft)
23.12.2008 00:00 4,3 C 98 % 1033,8 hPa 0,0 l/m S-SW 3,1 km/h (1 Bft)
23.12.2008 01:00 4,3 C 98 % 1033,6 hPa 0,0 l/m S-SW 2,9 km/h (1 Bft)
23.12.2008 02:00 4,1 C 98 % 1033,9 hPa 0,0 l/m S-SW 1,5 km/h (1 Bft)
23.12.2008 03:00 3,8 C 98 % 1033,8 hPa 0,0 l/m N 0,0 km/h (0 Bft)
23.12.2008 04:00 3,1 C 97 % 1033,2 hPa 0,0 l/m N 0,9 km/h (0 Bft)
23.12.2008 05:00 2,3 C 97 % 1033,2 hPa 0,0 l/m N 0,4 km/h (0 Bft)
23.12.2008 06:00 1,8 C 98 % 1033,6 hPa 0,0 l/m N 1,5 km/h (1 Bft)
23.12.2008 07:00 1,5 C 98 % 1033,8 hPa 0,0 l/m N 1,3 km/h (1 Bft)
23.12.2008 08:00 0,9 C 98 % 1034,2 hPa 0,2 l/m N 1,2 km/h (1 Bft)
23.12.2008 09:00 0,5 C 98 % 1034,9 hPa 0,0 l/m NW 3,5 km/h (1 Bft)
23.12.2008 10:00 1,2 C 99 % 1035,3 hPa 0,0 l/m N 1,3 km/h (1 Bft)
23.12.2008 11:00 2,8 C 99 % 1035,1 hPa 0,0 l/m NW 2,4 km/h (1 Bft)
23.12.2008 12:00 5,3 C 90 % 1034,7 hPa 0,0 l/m N-NO 5,7 km/h (1 Bft)
23.12.2008 13:00 5,7 C 85 % 1034,5 hPa 0,0 l/m N-NO 6,4 km/h (2 Bft)
23.12.2008 14:00 5,8 C 85 % 1034,4 hPa 0,0 l/m N 4,4 km/h (1 Bft)
23.12.2008 15:00 5,7 C 86 % 1034,5 hPa 0,0 l/m NO 3,1 km/h (1 Bft)
23.12.2008 16:00 5,0 C 89 % 1034,7 hPa 0,0 l/m N 0,7 km/h (0 Bft)
23.12.2008 17:00 4,5 C 91 % 1034,7 hPa 0,0 l/m N 0,7 km/h (0 Bft)
23.12.2008 18:00 3,7 C 91 % 1034,9 hPa 0,0 l/m N 1,9 km/h (1 Bft)
23.12.2008 19:00 2,3 C 92 % 1034,9 hPa 0,0 l/m N 0,3 km/h (0 Bft)
23.12.2008 20:00 1,1 C 94 % 1035,2 hPa 0,0 l/m N 0,1 km/h (0 Bft)
23.12.2008 21:00 0,4 C 95 % 1035,2 hPa 0,0 l/m N 0,9 km/h (0 Bft)
23.12.2008 22:00 -0,1 C 95 % 1035,3 hPa 0,0 l/m N 0,8 km/h (0 Bft)
23.12.2008 23:00 -0,6 C 96 % 1035,3 hPa 0,0 l/m N 1,6 km/h (1 Bft)
24.12.2008 00:00 -0,8 C 96 % 1035,3 hPa 0,0 l/m N 1,2 km/h (1 Bft)
24.12.2008 01:00 -1,1 C 97 % 1035,0 hPa 0,0 l/m N 1,5 km/h (1 Bft)
24.12.2008 02:00 -1,4 C 97 % 1034,8 hPa 0,0 l/m N 4,1 km/h (1 Bft)
24.12.2008 03:00 -1,7 C 97 % 1034,6 hPa 0,0 l/m N-NW 5,5 km/h (1 Bft)
24.12.2008 04:00 -1,8 C 97 % 1034,4 hPa 0,0 l/m N-NW 4,9 km/h (1 Bft)
24.12.2008 05:00 -1,3 C 98 % 1034,0 hPa 0,0 l/m N-NW 2,5 km/h (1 Bft)
24.12.2008 06:00 -0,4 C 99 % 1033,2 hPa 0,0 l/m S-SO 2,3 km/h (1 Bft)
24.12.2008 07:00 0,2 C 99 % 1033,0 hPa 0,0 l/m SO 3,2 km/h (1 Bft)
24.12.2008 08:00 0,3 C 99 % 1033,3 hPa 0,0 l/m N-NO 4,8 km/h (1 Bft)
24.12.2008 09:00 0,2 C 99 % 1033,5 hPa 0,0 l/m NO 5,6 km/h (1 Bft)
24.12.2008 10:00 0,4 C 99 % 1033,5 hPa 0,0 l/m O-NO 6,2 km/h (2 Bft)
24.12.2008 11:00 0,7 C 99 % 1033,0 hPa 0,0 l/m N-NO 2,9 km/h (1 Bft)
24.12.2008 12:00 1,0 C 99 % 1032,2 hPa 0,0 l/m N-NW 6,8 km/h (2 Bft)
24.12.2008 13:00 1,3 C 99 % 1030,6 hPa 0,0 l/m S 5,6 km/h (1 Bft)
24.12.2008 14:00 1,3 C 99 % 1029,3 hPa 0,0 l/m SW 9,2 km/h (2 Bft)
24.12.2008 15:00 1,0 C 99 % 1028,2 hPa 0,0 l/m W-SW 16,0 km/h (3 Bft)
24.12.2008 16:00 0,8 C 99 % 1028,1 hPa 0,0 l/m W-SW 7,5 km/h (2 Bft)
24.12.2008 17:00 0,6 C 98 % 1028,8 hPa 0,0 l/m SW 5,1 km/h (1 Bft)
24.12.2008 18:00 0,4 C 99 % 1029,7 hPa 0,0 l/m O-SO 5,3 km/h (1 Bft)
24.12.2008 19:00 0,4 C 99 % 1029,7 hPa 0,0 l/m S-SW 10,2 km/h (2 Bft)
24.12.2008 20:00 0,4 C 99 % 1029,8 hPa 0,0 l/m S-SW 8,2 km/h (2 Bft)
24.12.2008 21:00 0,5 C 99 % 1029,1 hPa 0,0 l/m SW 11,4 km/h (2 Bft)
24.12.2008 22:00 0,7 C 99 % 1028,3 hPa 0,0 l/m S 3,5 km/h (1 Bft)
24.12.2008 23:00 0,8 C 99 % 1027,7 hPa 0,0 l/m O-NO 2,7 km/h (1 Bft)
25.12.2008 00:00 0,8 C 98 % 1027,3 hPa 0,0 l/m O 2,8 km/h (1 Bft)
25.12.2008 01:00 0,8 C 99 % 1027,3 hPa 0,2 l/m N 0,8 km/h (0 Bft)
25.12.2008 02:00 0,9 C 99 % 1027,0 hPa 0,0 l/m SW 2,7 km/h (1 Bft)
25.12.2008 03:00 0,9 C 99 % 1026,9 hPa 0,0 l/m N 0,3 km/h (0 Bft)
25.12.2008 04:00 0,9 C 99 % 1027,1 hPa 0,4 l/m N 2,5 km/h (1 Bft)
25.12.2008 05:00 0,8 C 98 % 1027,0 hPa 0,4 l/m N-NO 3,6 km/h (1 Bft)
25.12.2008 06:00 0,9 C 99 % 1027,2 hPa 0,0 l/m O-NO 12,1 km/h (2 Bft)
25.12.2008 07:00 1,1 C 98 % 1026,9 hPa 0,0 l/m O-NO 11,4 km/h (2 Bft)
25.12.2008 08:00 1,3 C 97 % 1027,4 hPa 0,0 l/m O-NO 10,6 km/h (2 Bft)
25.12.2008 09:00 1,4 C 96 % 1027,6 hPa 0,0 l/m O-NO 11,8 km/h (2 Bft)
25.12.2008 10:00 1,6 C 96 % 1027,8 hPa 0,0 l/m O-NO 15,2 km/h (3 Bft)
25.12.2008 11:00 1,8 C 94 % 1027,6 hPa 0,0 l/m O-NO 17,6 km/h (3 Bft)
25.12.2008 12:00 2,1 C 93 % 1027,1 hPa 0,0 l/m O-NO 14,8 km/h (3 Bft)
25.12.2008 13:00 2,2 C 91 % 1027,1 hPa 0,0 l/m NO 17,7 km/h (3 Bft)
25.12.2008 14:00 2,1 C 89 % 1027,3 hPa 0,0 l/m O-NO 21,2 km/h (4 Bft)
25.12.2008 15:00 2,0 C 89 % 1027,2 hPa 0,0 l/m O-NO 19,3 km/h (3 Bft)
25.12.2008 16:00 1,9 C 89 % 1027,4 hPa 0,0 l/m O 18,8 km/h (3 Bft)
25.12.2008 17:00 1,8 C 90 % 1027,7 hPa 0,0 l/m O-NO 15,7 km/h (3 Bft)
25.12.2008 18:00 1,4 C 92 % 1027,6 hPa 0,0 l/m O-NO 15,6 km/h (3 Bft)
25.12.2008 19:00 1,1 C 89 % 1028,0 hPa 0,0 l/m O-NO 29,9 km/h (5 Bft)
25.12.2008 20:00 0,1 C 90 % 1028,3 hPa 0,0 l/m O-NO 26,2 km/h (4 Bft)
25.12.2008 21:00 -0,5 C 88 % 1028,7 hPa 0,0 l/m O-NO 29,1 km/h (5 Bft)
25.12.2008 22:00 -1,0 C 82 % 1029,0 hPa 0,0 l/m O-SO 34,7 km/h (5 Bft)
25.12.2008 23:00 -1,4 C 77 % 1029,0 hPa 0,0 l/m O-SO 35,5 km/h (5 Bft)
26.12.2008 00:00 -1,7 C 72 % 1028,4 hPa 0,0 l/m O 40,1 km/h (6 Bft)
26.12.2008 01:00 -1,9 C 70 % 1028,3 hPa 0,0 l/m NO 48,8 km/h (6 Bft)
26.12.2008 02:00 -2,3 C 72 % 1028,8 hPa 0,0 l/m O 41,3 km/h (6 Bft)
26.12.2008 03:00 -2,6 C 73 % 1028,8 hPa 0,0 l/m O 42,0 km/h (6 Bft)
26.12.2008 04:00 -2,6 C 74 % 1029,2 hPa 0,0 l/m O 35,8 km/h (5 Bft)
26.12.2008 05:00 -2,8 C 75 % 1029,3 hPa 0,0 l/m O-NO 35,9 km/h (5 Bft)
26.12.2008 06:00 -3,0 C 77 % 1030,1 hPa 0,0 l/m NO 30,1 km/h (5 Bft)
26.12.2008 07:00 -3,3 C 78 % 1030,0 hPa 0,0 l/m NO 31,0 km/h (5 Bft)
26.12.2008 08:00 -3,6 C 80 % 1030,7 hPa 0,0 l/m O-NO 30,3 km/h (5 Bft)
26.12.2008 09:00 -3,4 C 79 % 1031,4 hPa 0,0 l/m O-NO 25,9 km/h (4 Bft)
26.12.2008 10:00 -2,9 C 78 % 1032,0 hPa 0,0 l/m O-NO 32,9 km/h (5 Bft)
26.12.2008 11:00 -2,2 C 76 % 1032,0 hPa 0,0 l/m NO 35,3 km/h (5 Bft)
26.12.2008 12:00 -1,2 C 72 % 1032,1 hPa 0,0 l/m O 32,3 km/h (5 Bft)
26.12.2008 13:00 -0,5 C 71 % 1031,7 hPa 0,0 l/m O-NO 28,4 km/h (4 Bft)
26.12.2008 14:00 -0,4 C 71 % 1031,1 hPa 0,0 l/m O 27,0 km/h (4 Bft)
26.12.2008 15:00 -0,6 C 70 % 1031,3 hPa 0,0 l/m O-NO 27,1 km/h (4 Bft)
26.12.2008 16:00 -1,4 C 74 % 1031,7 hPa 0,0 l/m NO 29,0 km/h (5 Bft)
26.12.2008 17:00 -2,2 C 79 % 1031,9 hPa 0,0 l/m NO 31,4 km/h (5 Bft)
26.12.2008 18:00 -2,7 C 81 % 1032,0 hPa 0,0 l/m NO 24,9 km/h (4 Bft)
26.12.2008 19:00 -3,0 C 82 % 1032,2 hPa 0,0 l/m O 25,5 km/h (4 Bft)
26.12.2008 20:00 -3,2 C 83 % 1032,6 hPa 0,0 l/m O 24,9 km/h (4 Bft)
26.12.2008 21:00 -3,3 C 83 % 1032,6 hPa 0,0 l/m O-NO 31,0 km/h (5 Bft)
26.12.2008 22:00 -3,4 C 83 % 1032,7 hPa 0,0 l/m NO 26,1 km/h (4 Bft)
26.12.2008 23:00 -3,5 C 83 % 1032,5 hPa 0,0 l/m O-NO 30,9 km/h (5 Bft)
27.12.2008 00:00 -3,4 C 83 % 1032,2 hPa 0,0 l/m O-NO 24,0 km/h (4 Bft)
27.12.2008 01:00 -3,4 C 84 % 1031,8 hPa 0,0 l/m O-NO 25,5 km/h (4 Bft)
27.12.2008 02:00 -3,4 C 84 % 1031,8 hPa 0,0 l/m O 28,0 km/h (4 Bft)
27.12.2008 03:00 -3,4 C 85 % 1031,5 hPa 0,0 l/m O 23,2 km/h (4 Bft)
27.12.2008 04:00 -3,5 C 85 % 1031,3 hPa 0,0 l/m O-NO 25,7 km/h (4 Bft)
27.12.2008 05:00 -3,4 C 86 % 1031,4 hPa 0,0 l/m O-NO 25,7 km/h (4 Bft)
27.12.2008 06:00 -3,3 C 87 % 1031,5 hPa 0,0 l/m NO 25,6 km/h (4 Bft)
27.12.2008 07:00 -3,3 C 87 % 1031,8 hPa 0,0 l/m O 27,8 km/h (4 Bft)
27.12.2008 08:00 -3,2 C 86 % 1031,9 hPa 0,0 l/m O 26,4 km/h (4 Bft)
27.12.2008 09:00 -3,2 C 82 % 1032,3 hPa 0,0 l/m O-NO 24,8 km/h (4 Bft)
27.12.2008 10:00 -3,2 C 80 % 1032,5 hPa 0,0 l/m NO 27,1 km/h (4 Bft)
27.12.2008 11:00 -3,1 C 81 % 1032,3 hPa 0,0 l/m O-SO 25,9 km/h (4 Bft)
27.12.2008 12:00 -2,9 C 77 % 1031,6 hPa 0,0 l/m O-NO 31,4 km/h (5 Bft)
27.12.2008 13:00 -2,7 C 76 % 1031,2 hPa 0,0 l/m O-NO 27,1 km/h (4 Bft)
27.12.2008 14:00 -2,7 C 75 % 1030,9 hPa 0,0 l/m O-NO 22,9 km/h (4 Bft)
27.12.2008 15:00 -2,8 C 77 % 1030,9 hPa 0,0 l/m O-NO 26,0 km/h (4 Bft)
27.12.2008 16:00 -3,0 C 79 % 1030,8 hPa 0,0 l/m O 28,3 km/h (4 Bft)
27.12.2008 17:00 -3,1 C 79 % 1030,8 hPa 0,0 l/m O-SO 27,6 km/h (4 Bft)
27.12.2008 18:00 -3,2 C 80 % 1031,1 hPa 0,0 l/m O-NO 30,0 km/h (5 Bft)
27.12.2008 19:00 -3,1 C 80 % 1030,9 hPa 0,0 l/m O 30,4 km/h (5 Bft)
27.12.2008 20:00 -3,1 C 80 % 1030,8 hPa 0,0 l/m O-SO 28,3 km/h (4 Bft)
27.12.2008 21:00 -2,9 C 77 % 1030,4 hPa 0,0 l/m O 25,8 km/h (4 Bft)
27.12.2008 22:00 -2,8 C 76 % 1029,9 hPa 0,0 l/m O 24,9 km/h (4 Bft)
27.12.2008 23:00 -2,8 C 77 % 1029,5 hPa 0,0 l/m O-SO 23,7 km/h (4 Bft)
28.12.2008 00:00 -2,8 C 78 % 1028,9 hPa 0,0 l/m NO 25,2 km/h (4 Bft)
28.12.2008 01:00 -2,8 C 79 % 1028,3 hPa 0,0 l/m O 26,1 km/h (4 Bft)
28.12.2008 02:00 -3,0 C 80 % 1027,9 hPa 0,0 l/m O 26,8 km/h (4 Bft)
28.12.2008 03:00 -3,1 C 80 % 1027,7 hPa 0,0 l/m O 25,3 km/h (4 Bft)
28.12.2008 04:00 -3,2 C 80 % 1027,3 hPa 0,0 l/m O-NO 24,4 km/h (4 Bft)
28.12.2008 05:00 -3,3 C 81 % 1027,1 hPa 0,0 l/m O 27,1 km/h (4 Bft)
28.12.2008 06:00 -3,4 C 82 % 1026,8 hPa 0,0 l/m O-NO 21,4 km/h (4 Bft)
28.12.2008 07:00 -3,4 C 82 % 1026,9 hPa 0,0 l/m O-NO 18,5 km/h (3 Bft)
28.12.2008 08:00 -3,4 C 82 % 1026,8 hPa 0,0 l/m O-NO 22,0 km/h (4 Bft)
28.12.2008 09:00 -3,4 C 82 % 1026,6 hPa 0,0 l/m O-NO 22,3 km/h (4 Bft)
28.12.2008 10:00 -3,3 C 82 % 1026,7 hPa 0,0 l/m O 21,4 km/h (4 Bft)
28.12.2008 11:00 -3,3 C 81 % 1026,6 hPa 0,0 l/m O-NO 23,7 km/h (4 Bft)
28.12.2008 12:00 -3,3 C 81 % 1026,3 hPa 0,0 l/m NO 21,8 km/h (4 Bft)
28.12.2008 13:00 -3,2 C 80 % 1026,0 hPa 0,0 l/m O 21,2 km/h (4 Bft)
28.12.2008 14:00 -3,2 C 80 % 1025,7 hPa 0,0 l/m NO 18,6 km/h (3 Bft)
28.12.2008 15:00 -3,2 C 80 % 1025,7 hPa 0,0 l/m O 15,7 km/h (3 Bft)
28.12.2008 16:00 -3,1 C 80 % 1026,0 hPa 0,0 l/m O-NO 11,4 km/h (2 Bft)
28.12.2008 17:00 -3,4 C 82 % 1026,2 hPa 0,0 l/m NO 5,6 km/h (1 Bft)
28.12.2008 18:00 -3,9 C 84 % 1026,3 hPa 0,0 l/m NO 6,1 km/h (2 Bft)
28.12.2008 19:00 -4,4 C 85 % 1026,4 hPa 0,0 l/m N-NO 6,0 km/h (2 Bft)
28.12.2008 20:00 -4,9 C 87 % 1026,5 hPa 0,0 l/m N-NO 5,5 km/h (1 Bft)
28.12.2008 21:00 -5,5 C 87 % 1026,8 hPa 0,0 l/m N-NO 2,9 km/h (1 Bft)
28.12.2008 22:00 -6,1 C 90 % 1026,6 hPa 0,0 l/m N-NO 5,2 km/h (1 Bft)
28.12.2008 23:00 -6,3 C 90 % 1026,7 hPa 0,0 l/m N 2,4 km/h (1 Bft)
Min-Datum _ 28.12.08 26.12.08 28.12.08 - - 23.12.08
_ Min-Zeit 23:45 01:35 14:35 - - 00:35
Minimum _ -6,4 C 68 % 1025,5 hPa - - 0,0 km/h (0 Bft)
Max-Datum _ 22.12.08 23.12.08 23.12.08 22.12.08 - 26.12.08
_ Max-Zeit 15:20 11:40 10:45 22:30 - 01:35
Maximum _ 6,2 C 100 % 1035,5 hPa 0,6 l/m - 62,8 km/h
O (8 Bft)
Durchschnitt _ -0,0 C 88 % 1030,9 hPa #2,0 l/m O-NO 16,0 km/h (3 Bft)